Current Weather Conditions: station 63114

sailwx.info

Wind from 330 at 1 knots

Air temperature 8.4° C
Visibility: greater than 5.4 NM
Dewpoint 2.3° C

Last reported at 2014-Nov-23 18:00 UTC.
Time now 2014-Nov-23 18:54 UTC

Location: N 61°18' E 001°42'.
View on Google Maps.

See reports from other nearby stations

  
Tides and Currents Weather Stations Pressure Air Temp Water Temp Dewpoint Dewpoint Depression Visibility Wind Speed Wind Dir Waves Ship Positions
date/time (UTC)wind fromknots sea level pressurealtimeterstation pressurevisibilityair tempwater tempwave heightnotes
2014-Nov-23 18:00 330 1 5.4 8.4
2014-Nov-23 17:00 030 1 10.8 9.4
2014-Nov-23 16:00 300 1 10.8 9.3
2014-Nov-23 15:00 320 1 10.8 9.4
2014-Nov-23 14:00 310 4 10.8 9.4
2014-Nov-23 13:00 300 5 10.8 9.4
2014-Nov-23 12:00 300 6 10.8 9.5
2014-Nov-23 11:00 290 7 10.8 9.5
2014-Nov-23 10:00 270 6 10.8 9.5
2014-Nov-23 09:00 260 6 10.8 9.6
2014-Nov-23 08:00 250 11 10.8 9.7
2014-Nov-23 07:00 210 13 10.8 9.4
2014-Nov-23 06:00 200 20 5.4 9.3
2014-Nov-23 05:00 190 20 2.2 9.2
2014-Nov-23 04:00 180 24 2.2 9.1
2014-Nov-23 03:00 180 26 2.2 8.9
2014-Nov-23 02:00 170 27 2.2 8.6
2014-Nov-23 01:00 150 31 2.2 8.1
2014-Nov-23 00:00 150 32 1.1 7.8
2014-Nov-22 23:00 140 32 1.1 7.4
2014-Nov-22 22:00 140 31 2.2 7.3
2014-Nov-22 21:00 140 31 2.2 7.3
2014-Nov-22 20:00 130 31 2.2 7.5
2014-Nov-22 19:00 130 27 2.2 7.5
2014-Nov-22 18:00 130 29 5.4 7.9
2014-Nov-22 17:00 130 27 10.8 8.1
2014-Nov-22 16:00 130 27 10.8 7.7
2014-Nov-22 15:00 130 27 27.0 7.9
2014-Nov-22 14:00 130 24 27.0 7.8
2014-Nov-22 13:00 130 25 27.0 7.8
2014-Nov-22 12:00 140 24 27.0 8.0
2014-Nov-22 11:00 140 24 27.0 8.0
2014-Nov-22 10:00 130 25 10.8 7.6
2014-Nov-22 09:00 140 22 27.0 7.8
2014-Nov-22 08:00 150 18 27.0 7.8
2014-Nov-22 07:00 150 18 10.8 7.9
2014-Nov-22 06:00 160 19 10.8 8.0
2014-Nov-22 05:00 150 20 10.8 8.0
2014-Nov-22 04:00 160 17 27.0 8.2
2014-Nov-22 03:00 150 11 27.0 7.5
2014-Nov-22 02:00 140 12 27.0 7.8
2014-Nov-22 01:00 150 11 27.0 7.6
2014-Nov-22 00:00 160 11 27.0 7.8
2014-Nov-21 23:00 170 9 27.0 7.5
2014-Nov-21 22:00 170 7 27.0 7.6
2014-Nov-21 21:00 150 6 27.0 7.4
2014-Nov-21 20:00 180 6 27.0 7.4
2014-Nov-21 19:00 160 5 27.0 7.8
2014-Nov-21 18:00 130 2 27.0 7.8